timestamp,surface_pressure_avg,surface_temp_avg,battery_voltage,lat,long
2018-07-02 00:00:00+00:00,305.4713,6.8,13.21,47.84626,-54.09684
2018-07-02 00:10:00+00:00,315.163,6.8,13.05,47.84626,-54.09684
2018-07-02 00:20:00+00:00,324.263,6.78,13.13,47.84626,-54.09684
2018-07-02 00:30:00+00:00,325.5413,6.8,13.13,47.84626,-54.09684
2018-07-02 00:40:00+00:00,331.2613,6.8,13.13,47.84626,-54.09684
2018-07-02 00:50:00+00:00,342.2197,6.85,13.13,47.84626,-54.09684
2018-07-02 01:00:00+00:00,344.9913,6.9,13.05,47.84626,-54.09684
2018-07-02 01:10:00+00:00,341.1896,6.9,12.97,47.84626,-54.09684
2018-07-02 01:20:00+00:00,338.9047,6.89,13.05,47.84626,-54.09684
2018-07-02 01:30:00+00:00,340.3614,6.9,13.05,47.84626,-54.09684
2018-07-02 01:40:00+00:00,342.1196,6.9,13.05,47.84626,-54.09684
2018-07-02 01:50:00+00:00,341.0696,6.9,13.13,47.84626,-54.09684
2018-07-02 02:00:00+00:00,343.4729,6.9,13.05,47.84626,-54.09684
2018-07-02 02:10:00+00:00,345.2463,6.9,12.97,47.84626,-54.09684
2018-07-02 02:20:00+00:00,347.0746,6.9,13.05,47.84626,-54.09684
2018-07-02 02:30:00+00:00,346.2847,6.9,13.05,47.84626,-54.09684
2018-07-02 02:40:00+00:00,343.1163,6.9,13.05,47.84626,-54.09684
2018-07-02 02:50:00+00:00,342.123,6.9,13.05,47.84626,-54.09684
2018-07-02 03:00:00+00:00,341.8663,6.9,13.05,47.84626,-54.09684
2018-07-02 03:10:00+00:00,334.3997,6.9,12.97,47.84626,-54.09684
2018-07-02 03:20:00+00:00,328.738,6.9,12.97,47.84626,-54.09684
2018-07-02 03:30:00+00:00,328.6863,6.9,13.05,47.84626,-54.09684
2018-07-02 03:40:00+00:00,326.6663,6.93,13.05,47.84626,-54.09684
2018-07-02 03:50:00+00:00,317.4497,7.0,13.05,47.84626,-54.09684
2018-07-02 04:00:00+00:00,314.658,7.0,12.97,47.84626,-54.09684
2018-07-02 04:10:00+00:00,314.918,7.0,12.89,47.84626,-54.09684
2018-07-02 04:20:00+00:00,307.0247,7.01,12.97,47.84626,-54.09684
2018-07-02 04:30:00+00:00,297.9146,7.08,12.97,47.84626,-54.09684
2018-07-02 04:40:00+00:00,295.3914,7.08,12.97,47.84626,-54.09684
2018-07-02 04:50:00+00:00,290.503,7.02,13.05,47.84626,-54.09684
2018-07-02 05:00:00+00:00,275.9314,7.07,12.97,47.84626,-54.09684
2018-07-02 05:10:00+00:00,269.2231,7.0,12.89,47.84626,-54.09684
2018-07-02 05:20:00+00:00,266.5114,6.97,12.97,47.84626,-54.09684
2018-07-02 05:30:00+00:00,257.7481,6.9,12.97,47.84626,-54.09684
2018-07-02 05:40:00+00:00,245.2981,6.9,12.97,47.84626,-54.09684
2018-07-02 05:50:00+00:00,238.9247,6.89,12.97,47.84626,-54.09684
2018-07-02 06:00:00+00:00,232.9597,6.9,12.97,47.84626,-54.09684
2018-07-02 06:10:00+00:00,225.0264,6.9,12.89,47.84626,-54.09684
2018-07-02 06:20:00+00:00,218.2181,6.9,12.97,47.84626,-54.09684
2018-07-02 06:30:00+00:00,211.6381,6.93,12.97,47.84626,-54.09684
2018-07-02 06:40:00+00:00,202.3964,7.0,12.97,47.84626,-54.09684
2018-07-02 06:50:00+00:00,199.0948,7.0,12.97,47.84626,-54.09684
2018-07-02 07:00:00+00:00,198.3831,7.0,12.89,47.84626,-54.09684
2018-07-02 07:10:00+00:00,191.7132,7.0,12.89,47.84626,-54.09684
2018-07-02 07:20:00+00:00,184.7414,7.0,12.89,47.84626,-54.09684
2018-07-02 07:30:00+00:00,184.1781,7.0,12.97,47.84626,-54.09684
2018-07-02 07:40:00+00:00,184.9149,7.01,12.97,47.84626,-54.09684
2018-07-02 07:50:00+00:00,183.7848,7.09,12.97,47.84626,-54.09684
2018-07-02 08:00:00+00:00,184.9149,7.1,12.89,47.84626,-54.09684
2018-07-02 08:10:00+00:00,187.4682,7.1,12.81,47.84626,-54.09684
2018-07-02 08:20:00+00:00,189.5881,7.12,12.97,47.84626,-54.09684
2018-07-02 08:30:00+00:00,193.9048,7.1,12.97,47.84626,-54.09684
2018-07-02 08:40:00+00:00,198.2114,7.1,12.97,47.84626,-54.09684
2018-07-02 08:50:00+00:00,198.8214,7.1,13.05,47.84626,-54.09684
2018-07-02 09:00:00+00:00,203.1198,7.1,13.05,47.84626,-54.09684
2018-07-02 09:10:00+00:00,209.5447,7.1,12.97,47.84626,-54.09684
2018-07-02 09:20:00+00:00,209.8431,7.01,13.13,47.84626,-54.09684
2018-07-02 09:30:00+00:00,211.6064,7.0,13.29,47.84626,-54.09684
2018-07-02 09:40:00+00:00,219.2614,7.0,13.37,47.84626,-54.09684
2018-07-02 09:50:00+00:00,224.7464,7.0,13.6,47.84626,-54.09684
2018-07-02 10:00:00+00:00,224.6714,6.98,13.76,47.84626,-54.09684
2018-07-02 10:10:00+00:00,228.2331,6.99,13.92,47.84626,-54.09684
2018-07-02 10:20:00+00:00,235.8148,7.0,14.16,47.84626,-54.09684
2018-07-02 10:30:00+00:00,239.8981,7.1,14.32,47.84626,-54.09684
2018-07-02 10:40:00+00:00,240.673,7.1,14.4,47.84626,-54.09684
2018-07-02 10:50:00+00:00,244.5547,7.1,14.48,47.84626,-54.09684
2018-07-02 11:00:00+00:00,249.1631,7.1,14.48,47.84626,-54.09684
2018-07-02 11:10:00+00:00,253.4948,7.18,14.48,47.84626,-54.09684
2018-07-02 11:20:00+00:00,257.2564,7.2,14.72,47.84626,-54.09684
2018-07-02 11:30:00+00:00,259.4564,7.2,14.64,47.84626,-54.09684
2018-07-02 11:40:00+00:00,260.5914,7.56,14.64,47.84626,-54.09684
2018-07-02 11:50:00+00:00,266.4764,7.77,14.72,47.84626,-54.09684
2018-07-02 12:00:00+00:00,273.2297,7.47,14.56,47.84626,-54.09684
2018-07-02 12:10:00+00:00,275.1813,7.28,14.48,47.84626,-54.09684
2018-07-02 12:20:00+00:00,276.7197,7.2,14.64,47.84626,-54.09684
2018-07-02 12:30:00+00:00,287.3947,6.9,14.64,47.84626,-54.09684
2018-07-02 12:40:00+00:00,297.7147,6.89,14.64,47.84626,-54.09684
2018-07-02 12:50:00+00:00,300.7013,6.89,14.64,47.84626,-54.09684
2018-07-02 13:00:00+00:00,303.913,6.8,14.56,47.84626,-54.09684
2018-07-02 13:10:00+00:00,309.498,6.8,14.48,47.84626,-54.09684
2018-07-02 13:20:00+00:00,314.6346,6.8,14.64,47.84626,-54.09684
2018-07-02 13:30:00+00:00,315.0164,6.8,14.56,47.84626,-54.09684
2018-07-02 13:40:00+00:00,314.8263,6.8,14.56,47.84626,-54.09684
2018-07-02 13:50:00+00:00,315.1481,6.77,14.64,47.84626,-54.09684
2018-07-02 14:00:00+00:00,317.788,6.8,14.56,47.84626,-54.09684
2018-07-02 14:10:00+00:00,319.2129,7.16,14.48,47.84626,-54.09684
2018-07-02 14:20:00+00:00,317.353,7.49,14.56,47.84626,-54.09684
2018-07-02 14:30:00+00:00,315.2047,7.6,14.56,47.84626,-54.09684
2018-07-02 14:40:00+00:00,315.4564,7.67,14.48,47.84626,-54.09684
2018-07-02 14:50:00+00:00,312.7897,7.7,14.56,47.84626,-54.09684
2018-07-02 15:00:00+00:00,308.7147,7.7,14.4,47.84626,-54.09684
2018-07-02 15:10:00+00:00,307.953,7.42,14.4,47.84626,-54.09684
2018-07-02 15:20:00+00:00,308.7064,7.1,14.48,47.84626,-54.09684
2018-07-02 15:30:00+00:00,305.5764,7.17,14.48,47.84626,-54.09684
2018-07-02 15:40:00+00:00,299.4747,7.31,14.48,47.84626,-54.09684
2018-07-02 15:50:00+00:00,300.2513,7.3,14.4,47.84626,-54.09684
2018-07-02 16:00:00+00:00,301.3732,7.3,14.32,47.84626,-54.09684
2018-07-02 16:10:00+00:00,298.223,7.39,14.24,47.84626,-54.09684
2018-07-02 16:20:00+00:00,292.8231,7.48,14.4,47.84626,-54.09684
2018-07-02 16:30:00+00:00,291.2131,7.55,14.4,47.84626,-54.09684
2018-07-02 16:40:00+00:00,288.4114,7.61,14.4,47.84626,-54.09684
2018-07-02 16:50:00+00:00,283.2481,7.7,14.4,47.84626,-54.09684
2018-07-02 17:00:00+00:00,275.1297,7.7,14.24,47.84626,-54.09684
2018-07-02 17:10:00+00:00,264.3731,7.7,14.08,47.84626,-54.09684
2018-07-02 17:20:00+00:00,258.8698,7.72,14.24,47.84626,-54.09684
2018-07-02 17:30:00+00:00,255.138,7.7,14.24,47.84626,-54.09684
2018-07-02 17:40:00+00:00,247.9881,7.7,14.24,47.84626,-54.09684
2018-07-02 17:50:00+00:00,236.2831,7.7,14.24,47.84626,-54.09684
2018-07-02 18:00:00+00:00,231.7647,7.7,14.16,47.84626,-54.09684
2018-07-02 18:10:00+00:00,228.6998,7.7,14.08,47.84626,-54.09684
2018-07-02 18:20:00+00:00,220.5815,7.7,14.24,47.84626,-54.09684
2018-07-02 18:30:00+00:00,214.1913,7.7,14.16,47.84626,-54.09684
2018-07-02 18:40:00+00:00,212.6598,7.7,14.08,47.84626,-54.09684
2018-07-02 18:50:00+00:00,206.2081,7.71,14.08,47.84626,-54.09684
2018-07-02 19:00:00+00:00,199.0015,7.77,14.08,47.84626,-54.09684
2018-07-02 19:10:00+00:00,196.7581,7.76,14.0,47.84626,-54.09684
2018-07-02 19:20:00+00:00,193.4365,7.77,14.16,47.84626,-54.09684
2018-07-02 19:30:00+00:00,187.9065,7.79,14.08,47.84626,-54.09684
2018-07-02 19:40:00+00:00,185.9732,7.79,14.08,47.84626,-54.09684
2018-07-02 19:50:00+00:00,187.5098,7.8,14.0,47.84626,-54.09684
2018-07-02 20:00:00+00:00,187.2631,7.8,14.0,47.84626,-54.09684
2018-07-02 20:10:00+00:00,186.9498,7.8,13.84,47.84626,-54.09684
2018-07-02 20:20:00+00:00,189.9164,7.82,13.92,47.84626,-54.09684
2018-07-02 20:30:00+00:00,192.3248,7.8,13.92,47.84626,-54.09684
2018-07-02 20:40:00+00:00,193.8348,8.09,13.92,47.84626,-54.09684
2018-07-02 20:50:00+00:00,197.3431,8.0,13.92,47.84626,-54.09684
2018-07-02 21:00:00+00:00,202.0998,7.79,13.84,47.84626,-54.09684
2018-07-02 21:10:00+00:00,203.5598,7.7,13.68,47.84626,-54.09684
2018-07-02 21:20:00+00:00,206.4865,7.7,13.76,47.84626,-54.09684
2018-07-02 21:30:00+00:00,213.2765,7.7,13.76,47.84626,-54.09684
2018-07-02 21:40:00+00:00,214.2148,7.7,13.76,47.84626,-54.09684
2018-07-02 21:50:00+00:00,213.3464,7.71,13.76,47.84626,-54.09684
2018-07-02 22:00:00+00:00,221.6064,7.7,13.68,47.84626,-54.09684
2018-07-02 22:10:00+00:00,230.5314,7.71,13.6,47.84626,-54.09684
2018-07-02 22:20:00+00:00,232.098,7.76,13.6,47.84626,-54.09684
2018-07-02 22:30:00+00:00,233.3631,7.73,13.6,47.84626,-54.09684
2018-07-02 22:40:00+00:00,237.0564,7.7,13.6,47.84626,-54.09684
2018-07-02 22:50:00+00:00,240.3047,7.75,13.53,47.84626,-54.09684
2018-07-02 23:00:00+00:00,246.1397,7.74,13.44,47.84626,-54.09684
2018-07-02 23:10:00+00:00,249.2214,7.7,13.29,47.84626,-54.09684
2018-07-02 23:20:00+00:00,251.8464,7.7,13.29,47.84626,-54.09684
2018-07-02 23:30:00+00:00,259.1397,7.67,13.29,47.84626,-54.09684
2018-07-02 23:40:00+00:00,262.8331,7.68,13.29,47.84626,-54.09684
2018-07-02 23:50:00+00:00,262.5231,7.6,13.29,47.84626,-54.09684
